Weather History for Rolla, MO

Change the Weather History Date:

Tuesday, July 9, 2013

  Actual Average Record
Temperature  
Mean Temperature 82 °F 77 °F  
Max Temperature 91 °F 88 °F 102 °F (1901)
Min Temperature 73 °F 67 °F 54 °F (1898)
Degree Days  
Heating Degree Days 0 0  
Month to date heating degree days 0 0  
Since 1 June heating degree days 17 14  
Since 1 July heating degree days 0 0  
Cooling Degree Days 17 12  
Month to date cooling degree days 76 104  
Year to date cooling degree days 400 446  
Since 1 June cooling degree days 293 339  
Growing Degree Days 32 (Base 50)    
Moisture  
Dew Point 71 °F    
Average Humidity 70    
Maximum Humidity 84    
Minimum Humidity 56    
Precipitation  
Precipitation 0.00 in 0.15 in 2.19 in (1965)
Month to date precipitation 0.98 1.29  
Year to date precipitation 26.07 22.73  
Sea Level Pressure  
Sea Level Pressure 29.99 in    
Wind  
Wind Speed 8 mph (SSW)    
Max Wind Speed 13 mph    
Max Gust Speed 17 mph    
Visibility 10 miles    
Events      
T = Trace of Precipitation, MM = Missing Value Source: NWS Daily Summary

Daily Weather History Graph

Daily Weather History Graph

Search for Another Location

Airport:

Trip Planner

Search our weather history database for the weather conditions in past years. The results will help you decide how hot, cold, wet, or windy it might be!

Date:

Astronomy

Jul. 09, 2013 Rise Set
Actual Time 5:52 AM CDT 8:32 PM CDT
Civil Twilight 5:21 AM CDT 9:03 PM CDT
Nautical Twilight 4:42 AM CDT 9:41 PM CDT
Astronomical Twilight 3:59 AM CDT 10:25 PM CDT
Moon 7:14 AM CDT (7/9) 9:12 PM CDT (7/9)
Length of Visible Light 15h 41m
Length of Day
14h 39m
New Moon, 2% of the Moon is Illuminated
Jul 9
New Moon
Jul 15
First Quarter
Jul 22
Full
Jul 29
Last Quarter
Aug 6
New

Hourly Weather History & Observations

Time (CDT) Temp. Heat Index Dew Point Humidity Pressure Visibility Wind Dir Wind Speed Gust Speed Precip Events Conditions
12:53 AM 75.0 °F - 69.1 °F 82% 30.02 in 10.0 mi South 5.8 mph - N/A   Clear
1:53 AM 73.9 °F - 68.0 °F 82% 30.02 in 10.0 mi South 6.9 mph - N/A   Clear
2:53 AM 75.9 °F - 68.0 °F 76% 30.02 in 10.0 mi South 8.1 mph - N/A   Clear
3:53 AM 75.0 °F - 68.0 °F 79% 30.02 in 10.0 mi SSW 8.1 mph - N/A   Clear
4:53 AM 73.9 °F - 68.0 °F 82% 30.02 in 10.0 mi SSW 8.1 mph - N/A   Clear
5:53 AM 73.9 °F - 68.0 °F 82% 30.01 in 10.0 mi South 8.1 mph - N/A   Clear
6:53 AM 75.0 °F - 69.1 °F 82% 30.03 in 10.0 mi SSW 5.8 mph - N/A   Clear
7:53 AM 78.1 °F - 70.0 °F 76% 30.04 in 10.0 mi SSW 9.2 mph - N/A   Clear
8:53 AM 80.1 °F 83.6 °F 71.1 °F 74% 30.05 in 10.0 mi SW 11.5 mph - N/A   Clear
9:53 AM 82.9 °F 88.0 °F 72.0 °F 69% 30.05 in 10.0 mi WSW 9.2 mph - N/A   Clear
10:53 AM 84.9 °F 91.4 °F 73.0 °F 67% 30.04 in 10.0 mi SW 9.2 mph - N/A   Clear
11:53 AM 88.0 °F 95.6 °F 73.0 °F 61% 30.02 in 10.0 mi SSW 11.5 mph - N/A   Clear
12:53 PM 88.0 °F 95.6 °F 73.0 °F 61% 30.01 in 10.0 mi SW 10.4 mph - N/A   Clear
1:53 PM 90.0 °F 99.0 °F 73.9 °F 59% 30.01 in 10.0 mi SW 10.4 mph 16.1 mph N/A   Scattered Clouds
2:53 PM 91.0 °F 99.3 °F 73.0 °F 55% 29.98 in 10.0 mi SSW 9.2 mph - N/A   Clear
3:53 PM 90.0 °F 96.9 °F 72.0 °F 55% 29.96 in 10.0 mi South 8.1 mph - N/A   Clear
4:53 PM 88.0 °F 95.6 °F 73.0 °F 61% 29.95 in 10.0 mi South 5.8 mph - N/A   Clear
5:53 PM 88.0 °F 96.5 °F 73.9 °F 63% 29.94 in 10.0 mi SW 4.6 mph - N/A   Clear
6:53 PM 88.0 °F 96.5 °F 73.9 °F 63% 29.94 in 10.0 mi SSW 4.6 mph - N/A   Clear
7:53 PM 84.9 °F 93.3 °F 75.0 °F 72% 29.93 in 10.0 mi SSE 3.5 mph - N/A   Clear
8:53 PM 81.0 °F 86.2 °F 73.9 °F 79% 29.91 in 10.0 mi SSE 6.9 mph - N/A   Clear
9:53 PM 80.1 °F 83.6 °F 71.1 °F 74% 29.93 in 10.0 mi SSE 6.9 mph - N/A   Clear
10:53 PM 79.0 °F - 71.1 °F 77% 29.93 in 10.0 mi South 6.9 mph - N/A   Clear
11:53 PM 77.0 °F - 70.0 °F 79% 29.94 in 10.0 mi SSW 5.8 mph - N/A   Clear